Location: Drignac
(45.1667°N, 2.0333°E)
Time: 09:39:19
(UTC+00:00)

Cosmos 2315 Rocket - Pass Details

Date: 29 March 2020
Orbit: 965 x 1003 km, 82.9° (Epoch: 06 June)

Event Time Altitude Azimuth Distance (km) Brightness Sun altitude
Rises 19:36:09 0° 183° (S) 3,674 6.8 -14.5°
Reaches altitude 10° 19:38:38 10° 183° (S) 2,736 6.2 -14.9°
Maximum altitude 19:44:55 83° 96° (E) 1,007 4.0 -15.9°
Drops below altitude 10° 19:51:19 10° 10° (N) 2,778 6.5 -16.9°
Sets 19:53:51 0° 10° (N) 3,735 7.2 -17.3°
